Regional Weather Roundup
Issued by NWS

Home | Current Version | Previous Version | Graphics & Text | Print | Product List | Glossary On
Versions: 1 2 3 4 5 6 7 8 9 10 11 12 13 14 15 16 17 18 19 20 21 22 23 24 25 26 27 28 29 30 31 32 33 34 35 36 37 38 39 40 41 42 43 44 45 46 47 48 49 50
000
ASUS43 KTOP 271308
RWRKS

WEATHER ROUNDUP FOR KANSAS
NATIONAL WEATHER SERVICE GOODLAND KS
800 AM CDT TUE JUN 27 2017

NOTE:  "FAIR" INDICATES FEW OR NO CLOUDS BELOW 12,000 FEET WITH NO
SIGNIFICANT WEATHER AND/OR OBSTRUCTIONS TO VISIBILITY.

KSZ001>006-013>018-027>032-041>047-271400-
NORTHWEST KANSAS

CITY           SKY/WX    TMP DP  RH WIND       PRES   REMARKS
GOODLAND       FOG       59  59 100 SE13      30.00F VSB 1/4
HAYS           CLOUDY    65  62  90 SE14      30.01
HILL CITY      CLOUDY    63  62  97 SE8       30.01F FOG
RUSSELL        PTSUNNY   64  61  90 SE15      30.01F
$$

KSZ061>065-074>080-084>089-271400-
SOUTHWEST KANSAS

CITY           SKY/WX    TMP DP  RH WIND       PRES   REMARKS
DODGE CITY     SUNNY     69  66  90 S15       30.00F
ELKHART          N/A     66  49  54 SW7         N/A
GARDEN CITY    SUNNY     67  62  84 S8        29.99S
GREAT BEND     CLOUDY    65  63  93 SE15      30.02F
LIBERAL        SUNNY     69  62  78 SW14      30.04S
PRATT          MOSUNNY   64  60  86 SE9       30.03S
$$

KSZ066>073-081>083-090>101-271400-
SOUTHEAST KANSAS

CITY           SKY/WX    TMP DP  RH WIND       PRES   REMARKS
CHANUTE        CLOUDY    64  63  96 E7        30.09F
COFFEYVILLE    MOSUNNY   69  65  86 SE5       30.09R
HUTCHINSON     CLOUDY    66  62  87 SE13      30.04F
MEDICINE LODGE   N/A     67  63  87 SE8G17    30.02S
NEWTON         CLOUDY    64  63  96 SE12      30.05F
PARSONS        MOSUNNY   67  64  90 VRB3      30.10R
WICHITA INTL   LGT RAIN  66  64  93 SE12      30.04F
WICHITA JABRA  CLOUDY    65  63  93 NE13      30.06S THUNDER
WINFIELD       PTSUNNY   66  63  90 SE8       30.07S
$$

KSZ007>012-019>026-033>040-048>060-102>105-271400-
NORTHEAST KANSAS

CITY           SKY/WX    TMP DP  RH WIND       PRES   REMARKS
CONCORDIA      PTSUNNY   60  60 100 E10       30.05F
EMPORIA        CLOUDY    61  61 100 SE8       30.08S FOG
LAWRENCE       SUNNY     62  60  93 E7        30.11S
MANHATTAN      SUNNY     63  59  87 E6        30.07F
MARYSVILLE     SUNNY     61  57  88 SE7       30.08F
OLATHE IND     SUNNY     62  57  83 SE14      30.12S
OLATHE EXE     SUNNY     61  59  93 SE8       30.12S
SALINA         CLOUDY    66  61  84 SE13      30.05S
TOPEKA BILLARD SUNNY     63  60  90 E8        30.09F
TOPEKA FORBES  SUNNY     63  60  90 SE9       30.09F
$$



USA.gov is the U.S. government's official web portal to all federal, state and local government web resources and services.